Location: Unspecified
(40.7945°N, 0.0000°E)
Time: 06:13:52
(UTC+00:00)

Courier 1B - Pass Details

Date: 28 January 2021
Orbit: 962 x 1209 km, 28.3° (Epoch: 25 February)

Event Time Altitude Azimuth Distance (km) Brightness Sun altitude
Rises 22:11:12 0° 237° (WSW) 3,865 - -55.3°
Reaches altitude 10° 22:14:28 10° 225° (SW) 2,866 - -55.8°
Maximum altitude 22:20:01 26° 172° (S) 1,886 - -56.7°
Drops below altitude 10° 22:25:21 10° 119° (ESE) 2,742 - -57.5°
Sets 22:28:23 0° 106° (ESE) 3,666 - -58.0°
